This demonstration page uses our WeatherBlox Daily Observations layout. Learn more.

38.89511, -77.03637

Hourly Observations for September 2, 2016

Temp ( °F °C ) Dew Point ( °F °C ) Humidity (%) Winds ( mph kmh ) Pressure ( in mb ) Visibility ( mi km ) Precip ( " mm )
12:27 am 00:27 Cloudy with Light Rain 75 24 64 18 69 69 N 6 9 30 1016 10 16.0934 0 0
12:52 am 00:52 Cloudy 76 24.4 64 17.8 67 67 NNE 10 17 30.01 1016 10 16.0934 0 0.0254
1:52 am 01:52 Mostly Cloudy 74 23.3 60 15.6 62 62 NNE 15 24 30.01 1016 10 16.0934 0 0
2:52 am 02:52 Mostly Clear 71 21.7 59 15 66 66 NNE 13 20 30.01 1016 10 16.0934 0 0
3:52 am 03:52 Mostly Clear 69 20.6 57 13.9 66 66 NNE 10 17 30.02 1017 10 16.0934 0 0
4:52 am 04:52 Mostly Clear 69 20.6 57 13.9 66 66 N 12 19 30.03 1017 10 16.0934 0 0
5:52 am 05:52 Partly Cloudy 68 20 56 13.3 65 65 N 14 22 30.06 1018 10 16.0934 0 0
6:52 am 06:52 Mostly Cloudy 67 19.4 56 13.3 68 68 N 9 15 30.09 1019 10 16.0934 0 0
7:52 am 07:52 Mostly Cloudy 68 20 56 13.3 65 65 N 13 20 30.1 1019 10 16.0934 0 0
8:52 am 08:52 Mostly Cloudy 71 21.7 56 13.3 59 59 NNE 13 20 30.11 1020 10 16.0934 0 0
9:52 am 09:52 Mostly Cloudy 74 23.3 56 13.3 54 54 N 10 17 30.1 1019 10 16.0934 0 0
10:52 am 10:52 Mostly Cloudy 77 25 56 13.3 48 48 N 14 22 30.12 1020 10 16.0934 0 0
11:52 am 11:52 Mostly Cloudy 78 25.6 56 13.3 47 47 NE 8 13 30.11 1020 10 16.0934 0 0
12:52 pm 12:52 Mostly Cloudy 80 26.7 55 12.8 42 42 N 12 19 30.11 1020 10 16.0934 0 0
1:52 pm 13:52 Cloudy 80 26.7 53 11.7 39 39 NNE 9 15 30.1 1019 10 16.0934 0 0
2:52 pm 14:52 Cloudy 80 26.7 56 13.3 44 44 NE 9 15 30.09 1019 10 16.0934 0 0
3:52 pm 15:52 Cloudy 80 26.7 54 12.2 41 41 NE 9 15 30.07 1018 10 16.0934 0 0
4:52 pm 16:52 Cloudy 80 26.7 55 12.8 42 42 NE 12 19 30.07 1018 10 16.0934 0 0
5:52 pm 17:52 Cloudy 79 26.1 54 12.2 42 42 NE 13 20 30.07 1018 10 16.0934 0 0
6:52 pm 18:52 Cloudy 78 25.6 56 13.3 47 47 E 12 19 30.07 1018 10 16.0934 0 0
7:52 pm 19:52 Cloudy 76 24.4 57 13.9 52 52 E 8 13 30.07 1018 10 16.0934 0 0
8:52 pm 20:52 Cloudy 75 23.9 58 14.4 55 55 E 6 9 30.09 1019 10 16.0934 0 0
9:52 pm 21:52 Cloudy 75 23.9 59 15 58 58 NE 7 11 30.08 1019 10 16.0934 0 0
10:52 pm 22:52 Cloudy 75 23.9 58 14.4 55 55 NE 9 15 30.09 1019 10 16.0934 0 0
11:52 pm 23:52 Cloudy 73 22.8 60 15.6 64 64 ENE 9 15 30.09 1019 10 16.0934 0 0

Powered by AerisWeather